Shepherd Bay, Nunavut

8:52 AM CDT on July 27, 2017 (GMT -0500)
Shepherd Bay

Weather History for CYUS - October, 2012

Change the Weather History Date:

Wednesday, October 31, 2012

  Actual Average Record
Temperature  
Mean Temperature 16 °F -  
Max Temperature 24 °F -4 °F - ()
Min Temperature 8 °F -20 °F - ()
Degree Days  
Heating Degree Days 49    
Moisture  
Dew Point -    
Average Humidity    
Maximum Humidity    
Minimum Humidity    
Precipitation  
Precipitation 0.00 in 0.01 in - ()
Sea Level Pressure  
Sea Level Pressure 29.91 in    
Wind  
Wind Speed 23 mph ()    
Max Wind Speed 39 mph    
Max Gust Speed 45 mph    
Visibility 1.0 miles    
Events Snow    
T = Trace of Precipitation, MM = Missing Value Source: Averaged Metar Reports

Daily Weather History Graph

Daily Weather History Graph

Search for Another Location

Airport or City:

Trip Planner

Search our weather history database for the weather conditions in past years. The results will help you decide how hot, cold, wet, or windy it might be!

Date:

Astronomy

Oct. 31, 2012 Rise Set
Actual Time 9:30 AM CDT 4:22 PM CDT
Civil Twilight 8:22 AM CDT 5:31 PM CDT
Nautical Twilight 7:12 AM CDT 6:40 PM CDT
Astronomical Twilight 6:05 AM CDT 7:47 PM CDT
Moon 3:55 PM CDT (10/31) 12:48 PM CDT (10/31)
Length of Visible Light 9h 09m
Length of Day
6h 52m
Full, 97% of the Moon is Illuminated
Oct 31
Full
Nov 6
Last Quarter
Nov 13
New
Nov 20
First Quarter
Nov 28
Full

Hourly Weather History & Observations

Time (CDT) Temp. Windchill Dew Point Humidity Pressure Visibility Wind Dir Wind Speed Gust Speed Precip Events Conditions
12:00 AM 8.6 °F -10.0 °F - N/A% 30.25 in 2.5 mi East 18.4 mph - N/A Snow Light Snow
12:03 AM 8.6 °F -10.0 °F - N/A% 30.22 in 2.4 mi East 18.4 mph - N/A Snow Light Snow
12:29 AM 8.6 °F -11.0 °F - N/A% 30.21 in 3.0 mi East 20.7 mph - N/A Snow Light Snow
12:35 AM 8.6 °F -10.5 °F - N/A% 30.21 in 2.1 mi ESE 19.6 mph - N/A Snow Light Snow
12:40 AM 8.6 °F -11.0 °F - N/A% 30.21 in 1.5 mi ESE 20.7 mph - N/A Snow Light Snow
1:00 AM 9 °F - - % 30.22 in 2 mi East 19.6 mph - -  
1:00 AM 8.6 °F -10.5 °F - N/A% 30.22 in 1.6 mi East 19.6 mph - N/A Snow Light Snow
1:01 AM 8.6 °F -10.5 °F - N/A% 30.20 in 1.5 mi East 19.6 mph - N/A Snow Light Snow
1:22 AM 8.6 °F -11.0 °F - N/A% 30.19 in 1.8 mi East 20.7 mph - N/A Snow Light Snow
1:25 AM 8.6 °F -11.4 °F - N/A% 30.19 in 1.4 mi East 21.9 mph - N/A Snow Light Snow
1:28 AM 8.6 °F -11.4 °F - N/A% 30.19 in 1.0 mi East 21.9 mph - N/A Snow Light Snow
1:29 AM 8.6 °F -11.4 °F - N/A% 30.19 in 1.0 mi East 21.9 mph - N/A Snow Light Snow
1:32 AM 8.6 °F -11.9 °F - N/A% 30.18 in 0.6 mi East 23.0 mph - N/A Snow Light Snow
1:37 AM 8.6 °F -11.4 °F - N/A% 30.18 in 0.6 mi East 21.9 mph - N/A Snow Light Snow
2:00 AM 8.6 °F -11.9 °F - N/A% 30.19 in 1.0 mi East 23.0 mph - N/A Snow Light Snow
2:08 AM 8.6 °F -12.3 °F - N/A% 30.16 in 0.6 mi East 24.2 mph - N/A Snow Light Snow
2:52 AM 8.6 °F -13.1 °F - N/A% 30.13 in 0.5 mi East 26.5 mph - N/A Snow Light Snow
2:57 AM 8.6 °F -13.1 °F - N/A% 30.13 in 0.5 mi East 26.5 mph - N/A Snow Light Snow
2:59 AM 8.6 °F -13.4 °F - N/A% 30.13 in 0.6 mi East 27.6 mph - N/A Snow Light Snow
3:00 AM 8.6 °F -13.4 °F - N/A% 30.15 in 0.6 mi East 27.6 mph - N/A Snow Light Snow
3:11 AM 10.4 °F -10.7 °F - N/A% 30.12 in 0.5 mi East 26.5 mph - N/A Snow Light Snow
3:16 AM 10.4 °F -11.0 °F - N/A% 30.11 in 0.4 mi East 27.6 mph - N/A Snow Light Snow
4:00 AM 10 °F - - % 30.11 in 0 mi East 27.6 mph - - Snow Light Snow
4:00 AM 10.4 °F -11.4 °F - N/A% 30.11 in 0.4 mi East 28.8 mph - N/A Snow Light Snow
4:08 AM 10.4 °F -11.4 °F - N/A% 30.08 in 0.4 mi East 28.8 mph - N/A Snow Light Snow
4:13 AM 10.4 °F -11.7 °F - N/A% 30.07 in 0.2 mi East 29.9 mph - N/A Snow Light Snow
4:57 AM 10.4 °F -11.4 °F - N/A% 30.04 in 0.2 mi East 28.8 mph - N/A Snow Light Snow
5:00 AM 10.4 °F -11.4 °F - N/A% 30.06 in 0.2 mi East 28.8 mph - N/A   Unknown
5:43 AM 14.0 °F -7.7 °F - N/A% 30.00 in 0.4 mi East 33.4 mph - N/A Snow Light Snow
5:52 AM 14.0 °F -8.3 °F - N/A% 29.99 in 0.4 mi East 35.7 mph - N/A Snow Light Snow
5:56 AM 14.0 °F -8.0 °F - N/A% 29.98 in 0.4 mi East 34.5 mph - N/A Snow Light Snow
6:00 AM 14.0 °F -8.0 °F - N/A% 30.00 in 0.4 mi East 34.5 mph - N/A Snow Light Snow
6:35 AM 14.0 °F -7.4 °F - N/A% 29.94 in 0.1 mi East 32.2 mph 40.3 mph N/A Snow Light Snow
7:00 AM 15 °F - - % 29.94 in 0 mi East 36.8 mph - -  
7:00 AM 14.0 °F -8.3 °F - N/A% 29.94 in 0.1 mi East 35.7 mph - N/A Snow Light Snow
8:00 AM 15.8 °F -6.1 °F - N/A% 29.88 in 0.1 mi East 36.8 mph - N/A Snow Light Snow
9:00 AM 15.8 °F -6.6 °F - N/A% 29.82 in 0.1 mi East 39.1 mph 44.9 mph N/A Snow Light Snow
9:57 AM 17.6 °F -2.2 °F - N/A% 29.76 in 0.1 mi ESE 31.1 mph 38.0 mph N/A Snow Light Snow
9:59 AM 17.6 °F -1.6 °F - N/A% 29.76 in 0.1 mi East 28.8 mph 34.5 mph N/A   Unknown
10:00 AM 17 °F - - % 29.77 in 0 mi ESE 31.1 mph - -  
10:00 AM 17.6 °F -1.9 °F - N/A% 29.77 in 0.1 mi East 29.9 mph - N/A   Unknown
10:18 AM 19.4 °F 1.4 °F - N/A% 29.75 in 0.2 mi ESE 26.5 mph - N/A   Unknown
10:20 AM 19.4 °F 1.1 °F - N/A% 29.75 in 0.4 mi ESE 27.6 mph - N/A   Unknown
10:37 AM 19.4 °F 2.8 °F - N/A% 29.74 in 0.8 mi ESE 21.9 mph 27.6 mph N/A   Unknown
10:43 AM 19.4 °F 4.1 °F - N/A% 29.74 in 1.5 mi ESE 18.4 mph - N/A   Unknown
10:56 AM 24.8 °F 10.3 °F - N/A% 29.74 in 5.0 mi South 20.7 mph - N/A   Unknown
10:58 AM 24.8 °F 9.6 °F - N/A% 29.74 in 3.0 mi South 23.0 mph - N/A   Unknown
10:59 AM 24.8 °F 9.6 °F - N/A% 29.74 in 2.5 mi South 23.0 mph - N/A   Unknown
11:00 AM 24.8 °F 9.6 °F - N/A% 29.76 in 2.2 mi South 23.0 mph - N/A   Unknown
11:08 AM 24.8 °F 7.9 °F - N/A% 29.74 in 0.6 mi South 29.9 mph - N/A   Unknown
11:18 AM 24.8 °F 8.1 °F - N/A% 29.75 in 0.5 mi South 28.8 mph - N/A   Unknown
11:22 AM 24.8 °F 8.4 °F - N/A% 29.75 in 0.6 mi South 27.6 mph - N/A   Unknown
11:40 AM 23.0 °F 4.9 °F - N/A% 29.75 in 0.4 mi South 32.2 mph - N/A   Unknown
11:44 AM 21.2 °F 2.2 °F - N/A% 29.76 in 0.2 mi South 33.4 mph - N/A   Unknown
11:49 AM 21.2 °F 1.9 °F - N/A% 29.76 in 0.2 mi South 34.5 mph - N/A   Unknown
11:50 AM 19.4 °F -0.8 °F - N/A% 29.76 in 0.1 mi South 35.7 mph - N/A   Unknown
12:00 PM 19.4 °F -0.0 °F - N/A% 29.78 in 0.1 mi South 32.2 mph - N/A   Unknown
12:05 PM 19.4 °F -0.0 °F - N/A% 29.76 in 0.1 mi South 32.2 mph - N/A   Unknown
12:12 PM 19.4 °F 0.2 °F - N/A% 29.77 in 0.1 mi South 31.1 mph - N/A   Unknown
12:27 PM 17.6 °F -1.9 °F - N/A% 29.77 in 0.4 mi South 29.9 mph - N/A   Unknown
12:35 PM 17.6 °F -3.1 °F - N/A% 29.77 in 0.1 mi SSW 34.5 mph - N/A   Unknown
12:37 PM 15.8 °F -5.5 °F - N/A% 29.77 in 0.1 mi SSW 34.5 mph - N/A Snow Light Snow
12:41 PM 15.8 °F -5.8 °F - N/A% 29.77 in 0.1 mi SSW 35.7 mph - N/A Snow Light Snow
12:49 PM 15.8 °F -5.2 °F - N/A% 29.78 in 0.1 mi SSW 33.4 mph 39.1 mph N/A Snow Light Snow
1:00 PM 15 °F - - % 29.81 in 0 mi South 31.1 mph - -  
1:00 PM 15.8 °F -4.1 °F - N/A% 29.81 in 0.1 mi South 28.8 mph - N/A Snow Light Snow
1:16 PM 14.0 °F -8.0 °F - N/A% 29.78 in 0.1 mi South 34.5 mph - N/A Snow Light Snow
1:20 PM 14.0 °F -7.4 °F - N/A% 29.78 in 0.1 mi SSW 32.2 mph 38.0 mph N/A Snow Light Snow
2:00 PM 12.2 °F -8.6 °F - N/A% 29.83 in 0.1 mi South 27.6 mph 34.5 mph N/A Snow Light Snow
2:01 PM 12.2 °F -8.2 °F - N/A% 29.81 in 0.1 mi South 26.5 mph 34.5 mph N/A   Unknown
2:15 PM 12.2 °F -10.2 °F - N/A% 29.80 in 0.1 mi South 33.4 mph - N/A   Unknown
2:21 PM 12.2 °F -9.6 °F - N/A% 29.80 in 0.1 mi South 31.1 mph - N/A   Unknown
2:37 PM 12.2 °F -8.2 °F - N/A% 29.81 in 0.1 mi South 26.5 mph - N/A   Unknown
2:45 PM 12.2 °F -8.6 °F - N/A% 29.81 in 0.1 mi South 27.6 mph - N/A   Unknown
2:47 PM 12.2 °F -8.6 °F - N/A% 29.81 in 0.1 mi South 27.6 mph - N/A   Unknown
2:57 PM 14.0 °F -6.2 °F - N/A% 29.80 in 0.2 mi South 27.6 mph - N/A   Unknown
3:00 PM 14.0 °F -6.5 °F - N/A% 29.83 in 0.2 mi South 28.8 mph - N/A   Unknown
3:15 PM 14.0 °F -6.8 °F - N/A% 29.80 in 0.2 mi SSW 29.9 mph - N/A   Unknown
3:16 PM 14.0 °F -7.1 °F - N/A% 29.80 in 0.2 mi SSW 31.1 mph - N/A   Unknown
3:23 PM 14.0 °F -7.7 °F - N/A% 29.80 in 0.1 mi SSW 33.4 mph - N/A   Unknown
3:24 PM 14.0 °F -8.0 °F - N/A% 29.80 in 0.1 mi SSW 34.5 mph - N/A Snow Light Snow
3:40 PM 12.2 °F -8.2 °F - N/A% 29.80 in 0.1 mi South 26.5 mph 32.2 mph N/A   Unknown
3:47 PM 12.2 °F -9.6 °F - N/A% 29.80 in 0.2 mi South 31.1 mph - N/A   Unknown
4:00 PM 11 °F - - % 29.82 in 0 mi South 28.8 mph - -  
4:00 PM 10.4 °F -11.4 °F - N/A% 29.82 in 0.2 mi South 28.8 mph - N/A   Unknown
4:11 PM 12.2 °F -9.9 °F - N/A% 29.80 in 0.1 mi SSW 32.2 mph - N/A   Unknown
4:39 PM 12.2 °F -9.6 °F - N/A% 29.80 in 0.1 mi SSW 31.1 mph - N/A Snow Light Snow
5:00 PM 12.2 °F -10.2 °F - N/A% 29.82 in 0.1 mi SSW 33.4 mph - N/A Snow Light Snow
6:00 PM 14.0 °F -7.4 °F - N/A% 29.81 in 0.1 mi SSW 32.2 mph 38.0 mph N/A Snow Light Snow
6:27 PM 19.4 °F 2.5 °F - N/A% 29.79 in 0.1 mi SW 23.0 mph 33.4 mph N/A Snow Light Snow
6:30 PM 19.4 °F 2.8 °F - N/A% 29.79 in 0.5 mi SW 21.9 mph 31.1 mph N/A Snow Light Snow
6:35 PM 19.4 °F 2.8 °F - N/A% 29.79 in 1.0 mi SW 21.9 mph - N/A Snow Light Snow
6:53 PM 17.6 °F 3.7 °F - N/A% 29.80 in 1.4 mi WSW 13.8 mph - N/A   Unknown
7:00 PM 18 °F - - % 29.83 in 2 mi WSW 13.8 mph - -  
7:00 PM 17.6 °F 3.7 °F - N/A% 29.83 in 1.8 mi WSW 13.8 mph - N/A   Unknown
7:21 PM 17.6 °F 4.3 °F - N/A% 29.82 in 1.5 mi WSW 12.7 mph 19.6 mph N/A Snow Light Snow
7:37 PM 15.8 °F 2.7 °F - N/A% 29.83 in 2.1 mi WSW 11.5 mph - N/A   Unknown
7:40 PM 15.8 °F 2.7 °F - N/A% 29.83 in 2.0 mi WSW 11.5 mph - N/A Snow Light Snow
7:58 PM 15.8 °F 2.1 °F - N/A% 29.84 in 2.1 mi WSW 12.7 mph 19.6 mph N/A   Unknown
8:00 PM 15.8 °F 1.4 °F - N/A% 29.86 in 2.0 mi WSW 13.8 mph 19.6 mph N/A   Unknown
8:02 PM 15.8 °F 0.9 °F - N/A% 29.84 in 2.0 mi WSW 15.0 mph 21.9 mph N/A   Unknown
8:18 PM 14.0 °F -2.0 °F - N/A% 29.85 in 1.5 mi West 16.1 mph 25.3 mph N/A   Unknown
8:27 PM 14.0 °F -1.4 °F - N/A% 29.86 in 2.4 mi WSW 15.0 mph - N/A   Unknown
8:44 PM 14.0 °F -2.5 °F - N/A% 29.87 in 3.0 mi West 17.3 mph - N/A   Unknown
8:50 PM 14.0 °F -3.0 °F - N/A% 29.87 in 1.2 mi West 18.4 mph 26.5 mph N/A   Unknown
9:00 PM 14.0 °F -2.5 °F - N/A% 29.90 in 1.2 mi West 17.3 mph - N/A   Unknown
9:10 PM 14.0 °F -2.5 °F - N/A% 29.89 in 1.4 mi West 17.3 mph 23.0 mph N/A   Unknown
9:12 PM 14.0 °F -2.0 °F - N/A% 29.89 in 2.0 mi West 16.1 mph 23.0 mph N/A   Unknown
9:42 PM 12.2 °F -4.8 °F - N/A% 29.91 in 3.0 mi West 17.3 mph - N/A   Unknown
9:43 PM 12.2 °F -4.3 °F - N/A% 29.91 in 3.5 mi West 16.1 mph 21.9 mph N/A   Unknown
9:46 PM 12.2 °F -4.8 °F - N/A% 29.91 in 3.0 mi West 17.3 mph 23.0 mph N/A   Unknown
10:00 PM 11 °F - - % 29.95 in 2 mi West 15.0 mph - -  
10:00 PM 12.2 °F -3.1 °F - N/A% 29.95 in 2.5 mi West 13.8 mph 19.6 mph N/A   Unknown
10:21 PM 10.4 °F -6.0 °F - N/A% 29.94 in 1.4 mi West 15.0 mph - N/A   Unknown
11:00 PM 10.4 °F -5.4 °F - N/A% 29.98 in 1.4 mi West 13.8 mph 19.6 mph N/A   Unknown
11:06 PM 10.4 °F -6.0 °F - N/A% 29.97 in 1.4 mi West 15.0 mph - N/A   Unknown
11:10 PM 10.4 °F -6.6 °F - N/A% 29.97 in 2.4 mi West 16.1 mph - N/A   Unknown
11:11 PM 10.4 °F -6.6 °F - N/A% 29.97 in 2.5 mi West 16.1 mph - N/A   Unknown
11:47 PM 12.2 °F -3.7 °F - N/A% 29.99 in 1.6 mi West 15.0 mph - N/A   Unknown
11:51 PM 12.2 °F -3.1 °F - N/A% 29.99 in 2.0 mi West 13.8 mph - N/A   Unknown
11:57 PM 10.4 °F -4.8 °F - N/A% 30.00 in 3.0 mi West 12.7 mph - N/A   Unknown
11:59 PM 10.4 °F -4.1 °F - N/A% 30.00 in 3.5 mi West 11.5 mph - N/A   Unknown